Location: Gudip?du
(17.0263°N, 80.8301°E)
Time: 02:09:10
(UTC+00:00)

Cosmos 2315 Rocket - Pass Details

Date: 03 August 2024
Orbit: 965 x 1002 km, 82.9° (Epoch: 18 September)

Event Time Altitude Azimuth Distance (km) Brightness Sun altitude
Rises 22:44:41 0° 176° (S) 3,711 6.8 -21.3°
Reaches altitude 10° 22:47:13 10° 173° (S) 2,764 6.2 -20.8°
Maximum altitude 22:53:30 66° 93° (E) 1,088 4.4 -19.5°
Drops below altitude 10° 22:59:47 10° 12° (NNE) 2,765 6.9 -18.1°
Sets 23:02:20 0° 9° (N) 3,712 7.5 -17.5°
